Location: Hopville
(44.8032°N, 123.1329°W)
Time: 16:20:01
(UTC+00:00)

Envisat - Pass Details

Date: 24 January 2021
Orbit: 764 x 766 km, 98.1° (Epoch: 28 February)

Event Time Altitude Azimuth Distance (km) Brightness Sun altitude
Rises 13:32:11 0° 19° (NNE) 3,243 6.4 -22.5°
Reaches altitude 10° 13:34:36 10° 25° (NNE) 2,312 5.7 -22.1°
Maximum altitude 13:39:29 45° 98° (E) 1,034 4.1 -21.2°
Drops below altitude 10° 13:44:20 10° 171° (S) 2,294 5.6 -20.3°
Sets 13:46:43 0° 178° (S) 3,215 6.4 -19.9°
